Location: Unspecified
(0.0000°N, 0.0000°E)
Time: 00:33:15
(UTC+00:00)

N. Korean satellite - Pass Details

Date: 17 January 2022
Orbit: 447 x 490 km, 97.3° (Epoch: 27 January)

Event Time Altitude Azimuth Distance (km) Brightness Sun altitude
Rises 04:07:35 0° 39° (NE) 2,553 10.4 -28.4°
Reaches altitude 10° 04:10:12 10° 60° (ENE) 1,675 9.7 -27.8°
Maximum altitude 04:12:35 17° 101° (E) 1,306 9.5 -27.3°
Drops below altitude 10° 04:14:58 10° 143° (SE) 1,675 10.0 -26.7°
Sets 04:17:35 0° 163° (SSE) 2,554 10.8 -26.1°
